Weather Roundup
Issued by NWS Springfield, MO

Home | Current Version | Previous Version | Text Only | Print | Product List | Glossary On
Versions: 1 2 3 4 5 6 7 8 9 10 11 12 13 14 15 16 17 18 19 20 21 22 23 24 25 26 27 28 29 30 31 32 33 34 35 36 37 38 39 40 41 42 43 44 45 46 47 48 49 50
000
NZUS99 KSGF 280007
HRRSGF

HOURLY WEATHER
NATIONAL WEATHER SERVICE SPRINGFIELD MO
600 PM CST FRI FEB 27 2015

......SGF CWA......

CITY           SKY/WX    TMP DP  RH WIND       PRES   REMARKS
SPRINGFIELD    CLOUDY    22   2  42 SE9       30.48S WCI  12
6HR MIN TEMP:  17; 6HR MAX TEMP:  23;

JOPLIN         LGT SNOW  21   4  47 SE8       30.52R WCI  11
6HR MIN TEMP:  18; 6HR MAX TEMP:  22; 6HR PCP: TRACE;

WEST PLAINS    CLOUDY    21   0  39 E3        30.52S
6HR MIN TEMP:  17; 6HR MAX TEMP:  21;

ROLLA          CLOUDY    20   0  41 E5        30.52S WCI  13
6HR MIN TEMP:  16; 6HR MAX TEMP:  21;

OSAGE BEACH    MOCLDY    19   0  42 E5        30.55S WCI  13
BRANSON        LGT SNOW  18  14  86 CALM      30.51S

......SURROUNDING SGF CWA......

CITY           SKY/WX    TMP DP  RH WIND       PRES   REMARKS
CHANUTE        LGT SNOW  18  11  74 E5        30.53S WCI  11
PARSONS        CLOUDY    20   3  48 CALM      30.54S
COFFEYVILLE    CLOUDY    19   9  65 SE5       30.55S WCI  12
EMPORIA        LGT SNOW  16   6  65 E6        30.49F WCI   7
GROVE OK       LGT SNOW  21  19  93 CALM      30.54S VSB 1
ROGERS AR      LGT SNOW  18  12  79 E7        30.49R FOG     WCI   8
SILOAM SPRINGS CLOUDY    18  10  73 E5        30.49S WCI  11
HARRISON AR    LGT SNOW  17  13  84 E7        30.49F FOG     WCI   8
NEAR YELLVILLE CLOUDY    19  12  73 CALM      30.55S

......KANSAS AND MISSOURI......

CITY           SKY/WX    TMP DP  RH WIND       PRES   REMARKS
KANSAS CTY INT CLOUDY    17   0  47 SE5       30.54S WCI  10
DOWNTOWN KC    CLOUDY    19   1  45 NE8       30.57R WCI   9
COLUMBIA       MOCLDY    18   4  54 NE10      30.57R WCI   6
SEDALIA        CLOUDY    20   2  45 E6        30.57S WCI  12
ST JOSEPH      CLOUDY    19   2  47 S6        30.56S WCI  11
ST LOUIS       MOCLDY    17  -3  41 NE6       30.63R WCI   9
SPIRIT OF STL  MOCLDY    17   0  47 NE6       30.63R WCI   9
KIRKSVILLE     CLEAR     14   1  56 E7        30.57S WCI   4
WICHITA        LGT SNOW  16   9  74 SE5       30.48S WCI   9
TOPEKA         CLOUDY    19  -1  41 SE3       30.55S
OLATHE         CLOUDY    19   0  43 E5        30.52S WCI  12

......TENNESSEE......

CITY           SKY/WX    TMP DP  RH WIND       PRES   REMARKS
MEMPHIS        CLOUDY    30  12  47 N13       30.56R WCI  20
NASHVILLE      PTCLDY    28  10  46 N9        30.55R WCI  19

......ARKANSAS.......

CITY           SKY/WX    TMP DP  RH WIND       PRES   REMARKS
FAYETTEVILLE   LGT SNOW  18  16  92 NE3       30.48R FOG
FT SMITH       CLOUDY    23  17  78 E8        30.52F WCI  14
LITTLE ROCK    CLOUDY    28   9  44 NE15      30.55F WCI  16

......OKLAHOMA.......

CITY           SKY/WX    TMP DP  RH WIND       PRES   REMARKS
TULSA          LGT SNOW  18  14  84 NE6       30.53F FOG     WCI  10
PONCA CITY     LGT SNOW  18  12  77 SE7       30.51S WCI   9
MCALESTER      LGT SNOW  21  16  81 NE7       30.49S WCI  12
OKLAHOMA CITY  CLOUDY    19  11  70 E10       30.44S WCI   7

......IOWA............

CITY           SKY/WX    TMP DP  RH WIND       PRES   REMARKS
DES MOINES     PTCLDY    13  -3  49 S5        30.56S WCI   5
QUAD CITIES    CLEAR      7  -7  52 SW5       30.63S WCI  -2

......ILLINOIS........

CITY           SKY/WX    TMP DP  RH WIND       PRES   REMARKS
QUINCY         CLEAR     10  -4  53 CALM      30.61S
CHICAGO        PTCLDY    11  -5  48 SW8       30.60R WCI  -1



USA.gov is the U.S. government's official web portal to all federal, state and local government web resources and services.